ISS DEB (44306 NORAD) Tracking and Keplerian Element Data

This shows tracking and keplerian element data for the satellite.

Feedback or suggestion? Click here.




ElementValue
Catalog44306
NameISS DEB
Epoch Orbit762
Epoch Day198.89104813
Epoch Year2019
RAAN208.8261
Inclination51.6395
Eccentricity0.0007574
Argument of Perigee155.2608
Mean Anonmoly204.8746
Mean Motion15.51587946
Decay Rate1.998E-05
L11 44306U 98067QD 19198.89104813 .00001998 00000-0 40803-4 0 9995
L22 44306 51.6395 208.8261 0007574 155.2608 204.8746 15.51587946 7622

Live tracking and technical data element details for ISS DEB (NORAD 44306). ISS DEB can be tracked NOW for your location showing map with azimuth and elevation plus other details from your city location.

Track the satellite on the map from your city or location and see movement details for azimuth, elevation, latitude, longitude, range, height, and movement on the map or in text.







IsCatalogInMostPopularTable: catalog: 44306, numindb: 46
Update: records affected: 1



GetName: 44306 ISS DEB

Hit Count: updated at: Fri, 19 Jul 2019 07:43:48 GMT